Location: Bay Shore Mobile Home Park
(38.5762°N, 75.0841°W)
Time: 20:39:03
(UTC+00:00)

ATLAS 5 CENTAUR R/B - Pass Details

Date: 15 November 2025
Orbit: 373 x 1090 km, 63.3° (Epoch: 08 December)

Event Time Altitude Azimuth Distance (km) Brightness Sun altitude
Rises 23:31:01 0° 319° (NW) 2,903 5.5 -20.4°
Reaches altitude 10° 23:33:11 10° 312° (NW) 2,100 4.8 -20.8°
Maximum altitude 23:37:46 45° 241° (WSW) 1,051 3.1 -21.7°
Drops below altitude 10° 23:43:21 10° 171° (S) 2,552 4.7 -22.7°
Sets 23:46:13 0° 165° (SSE) 3,599 5.4 -23.3°
